Temperature
22 21 20 19 19 19 19 20 19 19 16 15 15 15 15 11 11 11 11 10 9 9 8 6 5 4 3 2 2 1 2 2 1 1 1 0 -0 -1 -2 -3 -4 -4 -5 -6
21 20 19 19 19 18 19 19 19 18 16 15 15 15 16 13 11 11 11 11 10 10 8 7 5 4 3 2 2 1 1 1 1 1 0 -0 -1 -2 -3 -4 -4 -5 -6 -6
21 18 18 19 19 19 19 19 18 17 18 16 14 15 16 14 12 11 11 11 11 10 9 8 6 4 3 2 2 1 1 1 1 0 -0 -1 -2 -2 -3 -4 -4 -5 -6 -7
20 18 18 18 19 18 18 17 17 16 15 16 16 15 14 13 12 12 11 11 11 11 10 9 6 4 3 2 2 1 1 1 1 0 -0 -1 -2 -3 -3 -4 -5 -6 -6 -7
20 18 18 18 18 17 18 16 16 15 15 15 16 15 16 14 13 12 12 12 11 11 10 9 7 5 3 2 2 1 1 1 0 -0 -1 -2 -2 -3 -4 -5 -5 -6 -6 -7
18 17 18 17 17 16 16 16 15 15 15 15 18 17 17 15 16 15 14 13 12 11 10 9 7 5 3 2 2 1 1 0 0 -0 -1 -2 -3 -3 -4 -5 -5 -6 -7 -7
18 17 17 16 16 16 16 16 16 16 14 17 17 17 17 16 16 16 15 14 13 11 10 8 7 5 3 2 2 1 1 0 -0 -1 -1 -2 -3 -4 -4 -5 -6 -6 -7 -8
20 18 17 17 17 16 17 17 16 16 17 17 16 16 17 15 15 15 14 13 12 11 9 8 6 5 3 2 2 1 1 0 -0 -1 -2 -2 -3 -4 -4 -5 -6 -7 -7 -8
18 18 16 16 16 15 17 17 16 15 16 16 17 18 15 14 12 12 12 11 11 10 9 7 6 4 3 2 2 1 1 0 -0 -1 -2 -2 -3 -4 -4 -5 -6 -7 -7 -8
17 17 16 15 14 14 15 15 15 15 15 15 17 19 17 13 13 12 12 12 11 10 8 7 5 4 3 2 1 1 0 -0 -1 -1 -2 -2 -3 -4 -5 -5 -6 -7 -7 -8
16 16 16 15 14 16 14 15 15 15 15 14 14 16 19 17 17 15 13 14 12 11 9 7 5 3 2 1 1 1 0 -0 -1 -1 -2 -2 -3 -4 -4 -5 -6 -7 -7 -8
16 15 16 16 15 14 16 16 16 14 15 15 13 15 18 17 17 16 15 14 13 11 9 7 5 3 2 1 1 1 0 -0 -1 -1 -2 -2 -3 -4 -4 -5 -6 -7 -7 -8
14 14 15 16 14 13 14 15 15 15 14 13 13 15 16 15 15 15 15 14 12 10 8 6 4 3 2 1 1 1 0 -0 -1 -1 -2 -2 -3 -4 -4 -5 -6 -6 -7 -7
12 13 14 16 16 15 14 14 14 13 12 12 13 15 16 15 14 15 14 13 12 10 8 6 4 3 2 1 1 1 0 -0 -1 -1 -2 -2 -3 -4 -4 -5 -5 -6 -7 -7
11 12 14 15 16 15 14 14 13 12 13 13 14 15 16 16 15 16 15 14 12 10 8 6 5 3 2 1 1 1 0 -0 -1 -1 -2 -2 -3 -3 -4 -5 -5 -6 -6 -7
11 11 13 13 15 14 12 12 13 13 13 13 13 14 15 16 16 15 14 13 12 10 9 7 5 3 2 2 1 1 0 -0 -1 -1 -2 -2 -3 -3 -4 -4 -5 -6 -6 -7
11 11 12 12 13 12 12 13 12 12 12 12 12 13 14 14 14 14 14 13 12 11 9 8 6 5 3 2 2 1 1 -0 -1 -1 -2 -2 -3 -3 -4 -4 -5 -5 -6 -7
12 12 11 10 12 12 15 15 15 13 13 12 12 13 13 14 15 15 15 14 13 12 10 8 7 5 4 3 2 1 0 -0 -1 -1 -2 -2 -3 -3 -4 -4 -5 -5 -6 -7
9 11 10 10 10 12 16 13 13 12 12 13 13 13 14 15 12 13 16 15 14 12 11 9 8 6 4 3 2 1 1 -0 -1 -1 -2 -2 -3 -3 -3 -4 -4 -5 -6 -6
8 9 9 9 9 11 15 13 13 13 12 15 14 13 14 12 9 12 15 14 13 11 10 9 7 5 4 3 2 1 1 -0 -1 -1 -2 -2 -3 -3 -3 -4 -4 -5 -6 -6
7 7 7 7 8 10 14 11 12 13 14 18 18 17 16 12 13 15 14 13 12 11 10 8 7 6 5 4 3 1 1 0 -0 -1 -2 -2 -3 -3 -3 -4 -4 -5 -5 -6
8 7 7 8 8 10 11 10 11 14 18 18 18 17 16 16 15 14 13 13 12 10 9 8 7 6 5 4 3 2 1 0 -1 -1 -2 -2 -3 -3 -3 -4 -4 -5 -6 -6
11 11 10 10 12 15 13 14 17 17 17 18 18 17 16 15 15 14 13 12 11 10 9 8 7 5 4 4 3 2 1 -0 -1 -1 -2 -2 -3 -3 -3 -4 -4 -5 -5 -6
12 13 12 11 12 14 15 15 16 17 17 18 18 17 16 15 15 14 13 12 11 10 9 8 6 5 4 4 3 2 1 -0 -1 -1 -2 -2 -3 -3 -3 -4 -4 -5 -5 -6
14 11 10 11 12 14 16 17 18 18 18 18 18 17 16 15 15 14 13 13 12 10 9 8 7 6 5 4 3 2 1 -0 -1 -1 -2 -2 -3 -3 -3 -4 -4 -5 -5 -6
13 11 11 14 15 14 16 18 18 17 17 17 17 16 16 15 15 14 13 13 11 10 9 8 7 6 5 4 3 2 1 -0 -1 -1 -2 -2 -3 -3 -3 -4 -4 -5 -5 -6
Wind_Speed
3 4 2 6 6 6 7 7 8 1 8 7 11 13 11 16 13 13 13 13 13 13 12 12 11 11 10 8 6 4 2 1 2 2 3 4 4 4 7 7 9 11 12 14
5 2 5 4 2 4 6 8 8 4 6 5 8 12 8 17 19 15 14 13 13 12 12 13 12 11 10 9 7 4 3 1 1 1 2 3 4 4 8 7 9 11 13 14
4 4 2 1 4 6 8 5 5 5 3 8 5 6 4 7 10 12 12 11 12 14 14 14 14 12 10 9 8 5 3 2 1 1 3 4 3 4 4 4 5 11 14 14
2 4 1 4 4 3 4 6 4 5 6 3 5 4 6 7 8 11 12 13 12 12 12 14 15 13 11 9 8 6 4 3 2 1 2 4 4 5 5 4 5 11 14 14
2 4 4 5 2 1 4 3 4 6 6 6 6 5 4 7 8 12 14 14 13 11 11 13 14 13 11 10 9 6 5 4 3 2 3 4 5 4 5 5 6 6 10 13
3 2 1 3 1 2 6 6 7 4 4 5 5 5 3 7 8 9 11 12 12 11 10 11 12 12 10 10 9 7 6 5 4 4 4 4 5 6 7 7 6 6 5 9
7 6 4 1 4 6 5 5 2 3 4 3 2 3 5 8 8 8 9 9 9 10 10 11 12 12 11 11 10 8 7 6 5 4 4 4 5 6 6 7 6 7 6 6
5 5 6 4 2 3 3 3 3 3 4 3 4 6 4 8 7 6 5 5 6 8 9 11 12 12 12 12 10 9 8 6 5 5 5 5 5 4 4 6 6 7 6 6
6 2 3 3 2 3 4 1 2 3 6 5 6 6 4 2 6 7 8 8 9 9 10 11 11 12 11 12 11 10 8 7 6 5 5 5 5 5 6 6 6 5 6 10
5 4 6 5 3 3 4 5 2 4 3 5 8 6 6 9 11 11 11 11 11 11 11 11 11 11 11 11 10 9 8 7 6 5 5 5 5 6 5 6 8 7 8 10
4 4 3 5 7 7 5 4 4 4 3 3 5 7 1 7 8 10 11 11 12 12 12 12 11 11 10 10 10 9 8 7 6 6 5 5 6 6 6 7 7 7 7 9
0 4 5 3 3 4 0 4 4 3 4 4 4 8 2 5 6 7 8 8 9 11 11 11 11 11 10 10 10 9 9 8 7 6 5 5 6 6 7 7 7 7 7 9
2 3 5 2 1 1 3 5 5 3 2 4 5 8 2 4 6 8 9 8 8 10 11 11 11 12 12 11 10 10 9 8 7 6 5 6 6 7 7 7 7 7 7 8
2 4 6 5 2 2 6 7 9 7 5 6 10 13 9 8 8 8 9 10 9 11 12 12 12 12 12 11 11 10 9 8 7 6 5 6 7 6 7 7 7 7 7 9
2 5 7 11 10 7 8 9 12 13 11 10 10 12 15 11 9 6 4 7 9 10 12 14 14 13 12 11 11 10 9 8 7 6 6 6 6 6 7 7 8 8 8 10
4 5 5 7 8 5 8 14 15 15 14 16 17 19 18 13 7 5 6 8 10 12 14 14 14 14 14 13 12 10 9 8 7 6 6 6 6 6 7 8 8 9 9 9
5 4 4 5 1 5 11 13 16 9 12 11 16 15 10 7 9 9 9 10 12 13 13 15 16 15 14 13 12 12 10 8 7 6 6 6 6 7 8 9 8 9 9 9
5 4 3 5 5 9 10 2 8 12 11 13 13 12 11 11 8 7 8 11 12 12 13 14 14 14 12 11 11 10 9 8 7 7 7 7 7 8 8 7 8 9 8 8
3 3 3 3 6 10 9 4 5 8 9 13 18 18 17 10 7 9 12 12 12 11 11 12 13 12 12 12 12 11 9 8 8 8 8 8 8 7 7 8 8 8 8 8
2 2 3 4 5 8 9 3 3 4 8 9 12 15 14 3 5 10 5 7 9 9 9 10 11 11 13 12 13 12 11 10 11 10 9 8 7 7 7 8 8 7 7 8
5 5 6 7 8 11 7 5 5 5 8 5 10 12 10 10 13 8 6 7 8 8 9 11 12 12 13 14 14 13 12 13 11 9 7 7 6 7 7 7 6 7 7 8
11 10 9 8 8 12 7 9 10 11 5 5 8 10 11 12 12 9 9 9 9 9 10 11 12 12 12 14 15 14 14 12 9 8 7 7 7 7 6 6 7 7 6 7
12 13 9 13 13 7 11 12 11 6 7 9 9 11 11 12 12 11 10 11 11 11 11 12 12 12 12 15 16 16 13 10 9 8 7 7 7 6 6 6 6 5 5 5
8 8 7 9 14 13 11 12 14 15 16 17 15 14 12 13 14 13 11 11 12 13 13 12 13 14 14 15 15 13 11 11 10 9 8 7 6 6 6 5 5 4 4 5
9 8 7 11 10 10 12 14 19 19 18 17 17 15 15 15 16 14 13 13 13 14 14 14 16 17 17 16 16 13 11 12 11 9 8 7 6 6 5 5 5 5 5 5
12 10 10 17 11 9 11 9 11 13 16 16 16 15 14 14 16 15 13 12 13 14 14 15 17 17 16 17 16 15 13 13 12 10 9 7 6 5 5 4 5 9 8 11
Wind_Direction
223 246 71 47 34 341 324 315 300 348 147 201 239 250 214 181 194 203 203 205 206 205 193 179 165 157 155 159 166 159 151 73 23 14 339 324 319 307 307 311 322 329 327 325
250 162 69 61 28 297 285 288 297 95 153 218 270 272 244 179 194 203 208 208 209 202 189 178 168 166 169 170 166 161 158 124 38 44 304 279 281 286 295 311 330 324 318 315
345 74 75 285 256 284 280 281 335 340 274 223 270 280 153 152 185 201 218 223 213 203 194 181 176 175 173 171 161 170 164 191 202 330 291 302 299 299 316 331 319 312 311 312
120 115 208 264 267 309 306 49 355 306 303 270 192 280 187 164 190 207 215 222 225 213 194 182 178 178 174 163 147 159 181 203 207 249 278 300 300 303 305 303 292 305 312 313
144 144 223 258 20 1 321 12 276 277 271 279 219 238 199 161 206 216 216 218 218 212 193 180 175 174 165 151 151 167 189 208 206 227 261 275 284 290 294 297 297 305 310 309
98 117 314 3 69 246 298 278 235 246 254 257 186 210 236 193 191 181 192 201 203 197 185 169 161 157 153 149 156 173 196 211 207 220 251 265 281 291 299 303 305 304 297 301
184 178 152 220 251 205 241 288 266 225 219 217 94 236 247 150 143 159 173 179 182 178 171 162 158 161 161 161 168 181 198 213 210 220 245 261 270 277 284 293 297 298 296 296
234 179 159 180 320 335 297 298 332 304 309 329 207 233 223 146 132 126 141 161 172 174 172 169 167 167 168 169 174 186 198 208 211 221 243 253 264 268 270 279 284 287 288 286
327 91 112 89 23 302 289 207 51 306 281 269 250 209 126 145 175 188 197 201 203 193 180 173 170 169 170 173 180 187 193 205 211 221 240 250 261 269 271 276 277 275 279 293
312 296 156 142 206 226 285 332 281 248 288 293 287 273 215 199 215 208 209 209 206 194 183 178 175 174 173 173 176 181 192 204 210 220 236 252 255 260 266 271 275 276 282 291
296 285 176 175 211 200 185 213 229 269 289 259 292 278 97 160 176 192 207 207 199 190 186 182 178 173 168 167 173 184 195 201 210 219 231 253 261 264 268 270 273 277 285 290
326 307 268 181 92 33 280 245 213 232 249 223 259 272 188 126 151 187 209 200 187 183 181 178 173 169 170 175 180 189 194 199 207 213 227 248 260 265 269 273 278 286 286 289
3 269 277 226 328 346 251 232 227 266 325 257 245 260 170 168 205 216 218 210 188 177 175 174 175 177 180 183 186 190 194 197 200 206 226 249 261 268 274 280 284 286 284 285
11 264 246 268 337 188 221 209 196 195 211 235 234 256 260 244 242 238 222 210 190 181 181 182 185 185 185 186 187 189 193 191 193 203 225 247 260 269 277 282 284 283 283 286
224 263 266 274 276 246 244 231 201 208 217 229 248 260 271 284 296 286 229 196 188 187 190 192 192 189 187 186 187 187 189 186 188 202 225 244 259 271 280 285 286 285 285 289
214 260 285 279 252 254 265 245 227 224 229 244 262 274 271 276 271 259 235 210 207 205 200 197 194 192 190 189 187 184 186 183 182 202 226 244 260 270 276 280 281 283 283 282
198 234 274 279 188 314 268 241 210 207 210 207 231 242 258 254 243 243 240 228 220 214 204 198 197 197 193 188 183 182 179 172 179 205 227 241 252 261 265 275 281 281 282 283
204 203 259 286 318 255 247 304 192 206 231 218 238 256 265 263 276 266 245 235 231 215 203 198 194 192 185 176 171 165 162 170 188 210 226 236 244 253 261 269 275 279 281 284
334 209 237 258 268 276 273 217 173 196 260 227 232 251 261 273 320 282 248 229 223 210 198 191 186 181 173 168 162 158 167 179 197 214 225 231 237 249 261 270 275 278 284 286
292 297 230 216 237 250 261 137 102 124 282 248 214 236 251 226 285 274 228 197 203 191 178 173 168 166 168 167 159 166 181 192 208 214 219 225 232 245 257 265 274 280 283 283
171 196 208 220 237 262 257 143 127 175 247 224 206 226 230 210 231 243 190 196 194 184 172 165 165 172 174 165 164 179 190 204 208 205 210 220 231 242 252 263 272 278 283 288
180 181 199 191 212 253 194 150 192 221 251 230 234 235 235 237 246 234 213 209 197 186 174 169 172 176 169 167 173 187 201 203 193 192 203 220 233 243 251 258 268 274 284 294
196 196 195 198 217 245 175 205 229 261 272 264 260 257 246 251 253 242 229 215 204 193 185 179 177 174 173 176 182 194 200 187 182 186 205 222 234 241 245 252 264 277 285 290
220 209 223 240 249 254 232 234 251 254 254 261 263 262 252 250 253 248 234 219 208 199 191 183 178 182 186 186 191 196 186 177 177 191 207 219 229 240 248 253 253 259 270 280
234 190 224 250 260 282 266 240 245 253 256 258 260 255 248 246 251 244 237 222 211 202 193 188 191 194 193 189 193 192 181 173 181 194 206 215 221 229 245 253 253 261 245 258
234 218 228 255 248 239 262 256 249 256 261 259 260 263 253 237 245 243 237 224 209 202 193 194 198 198 194 190 193 189 181 176 182 196 205 208 210 220 231 249 274 285 285 288
Height
1553 1553 1556 1558 1557 1559 1557 1557 1557 1555 1560 1563 1562 1559 1557 1561 1564 1566 1568 1569 1571 1572 1574 1575 1575 1574 1574 1574 1575 1574 1573 1571 1569 1567 1564 1561 1559 1556 1553 1550 1546 1542 1538 1534
1553 1554 1556 1556 1557 1558 1558 1558 1556 1556 1559 1560 1557 1553 1548 1553 1556 1559 1562 1564 1566 1568 1570 1570 1570 1569 1569 1570 1570 1570 1569 1567 1565 1563 1561 1558 1555 1552 1550 1547 1543 1540 1535 1531
1554 1559 1557 1557 1556 1557 1556 1556 1557 1559 1555 1555 1559 1552 1547 1549 1554 1557 1558 1559 1560 1562 1563 1564 1563 1564 1565 1566 1566 1566 1565 1564 1562 1560 1557 1555 1552 1549 1547 1543 1540 1536 1532 1528
1553 1557 1557 1558 1556 1557 1557 1558 1558 1559 1563 1557 1556 1561 1552 1550 1552 1553 1553 1554 1554 1556 1557 1558 1558 1558 1559 1560 1561 1561 1561 1560 1558 1556 1554 1551 1548 1546 1543 1539 1536 1532 1529 1525
1553 1556 1557 1558 1556 1558 1556 1557 1559 1559 1562 1562 1552 1558 1547 1546 1550 1547 1546 1547 1548 1550 1552 1552 1552 1553 1555 1555 1556 1557 1557 1556 1554 1552 1550 1548 1545 1542 1539 1536 1532 1529 1525 1521
1555 1556 1556 1556 1557 1557 1557 1556 1556 1559 1561 1564 1545 1550 1544 1543 1538 1537 1539 1540 1542 1544 1547 1548 1548 1549 1550 1550 1551 1553 1553 1552 1550 1549 1547 1544 1542 1539 1535 1532 1528 1525 1521 1517
1556 1555 1556 1557 1557 1556 1557 1559 1561 1562 1568 1554 1544 1546 1541 1532 1530 1532 1535 1536 1538 1539 1541 1542 1543 1543 1544 1545 1546 1548 1548 1547 1546 1545 1543 1541 1538 1535 1532 1528 1525 1521 1517 1513
1550 1556 1554 1555 1556 1558 1553 1557 1566 1569 1560 1550 1546 1547 1531 1527 1528 1529 1532 1533 1535 1536 1536 1537 1537 1538 1539 1540 1542 1543 1543 1543 1542 1541 1539 1537 1534 1531 1528 1525 1521 1517 1513 1509
1553 1554 1556 1555 1556 1557 1554 1553 1556 1562 1556 1556 1543 1529 1532 1528 1529 1529 1529 1530 1530 1531 1532 1532 1533 1533 1534 1535 1537 1538 1539 1538 1538 1536 1535 1533 1530 1528 1524 1521 1518 1514 1510 1506
1557 1557 1554 1556 1557 1557 1557 1556 1558 1562 1564 1565 1543 1528 1528 1529 1525 1525 1525 1524 1525 1526 1526 1527 1528 1528 1529 1531 1532 1533 1534 1534 1533 1532 1530 1528 1526 1524 1520 1517 1514 1510 1506 1502
1558 1560 1555 1556 1556 1552 1558 1557 1556 1556 1555 1566 1561 1541 1513 1514 1514 1516 1517 1518 1519 1519 1520 1521 1522 1523 1525 1526 1527 1528 1529 1529 1529 1527 1526 1524 1522 1519 1516 1513 1510 1506 1502 1498
1558 1560 1555 1548 1548 1548 1547 1547 1551 1561 1556 1554 1559 1542 1510 1510 1511 1512 1513 1514 1514 1514 1515 1516 1517 1518 1519 1521 1522 1523 1524 1524 1524 1523 1522 1520 1518 1515 1512 1509 1506 1502 1499 1495
1559 1562 1559 1553 1555 1553 1551 1547 1547 1550 1556 1559 1558 1537 1511 1509 1509 1509 1509 1509 1509 1509 1510 1511 1512 1512 1513 1515 1517 1518 1519 1519 1519 1518 1517 1516 1513 1511 1508 1505 1502 1498 1494 1490
1560 1561 1559 1553 1548 1546 1547 1546 1546 1551 1558 1554 1543 1526 1511 1508 1506 1505 1504 1504 1504 1504 1504 1505 1505 1506 1508 1509 1511 1512 1513 1514 1514 1514 1513 1511 1509 1507 1504 1501 1498 1494 1490 1486
1560 1561 1550 1544 1539 1540 1540 1539 1542 1544 1540 1540 1527 1517 1506 1502 1501 1500 1499 1499 1499 1499 1498 1498 1499 1500 1502 1503 1505 1507 1508 1509 1509 1509 1508 1506 1505 1502 1500 1497 1493 1490 1486 1482
1559 1560 1551 1545 1536 1538 1539 1532 1532 1533 1532 1527 1522 1514 1499 1498 1496 1495 1495 1495 1494 1492 1492 1492 1493 1494 1495 1497 1499 1501 1502 1503 1504 1504 1503 1502 1500 1498 1495 1492 1489 1486 1482 1478
1556 1557 1554 1551 1540 1540 1536 1516 1519 1520 1514 1515 1516 1505 1494 1494 1492 1491 1490 1489 1487 1486 1486 1485 1485 1487 1489 1491 1493 1495 1497 1498 1498 1498 1498 1497 1495 1493 1491 1488 1485 1481 1478 1474
1551 1553 1555 1554 1545 1548 1512 1502 1501 1506 1503 1503 1499 1493 1491 1489 1487 1486 1484 1483 1480 1479 1479 1478 1479 1481 1483 1485 1487 1490 1491 1492 1493 1493 1493 1492 1491 1489 1487 1484 1481 1477 1474 1470
1549 1550 1554 1556 1551 1531 1505 1501 1500 1505 1502 1492 1492 1489 1486 1484 1483 1479 1477 1475 1474 1473 1472 1472 1473 1475 1477 1479 1481 1484 1485 1487 1487 1488 1488 1487 1486 1484 1482 1480 1477 1474 1470 1466
1550 1550 1554 1554 1555 1540 1504 1500 1498 1502 1503 1483 1483 1483 1481 1482 1487 1474 1470 1469 1468 1467 1467 1467 1467 1469 1470 1473 1475 1478 1479 1480 1481 1482 1482 1482 1481 1480 1478 1475 1473 1470 1466 1463
1552 1552 1555 1552 1549 1526 1499 1499 1501 1507 1495 1478 1477 1476 1476 1476 1473 1467 1465 1463 1462 1461 1461 1461 1461 1462 1464 1466 1469 1471 1473 1474 1476 1477 1477 1477 1476 1475 1473 1471 1469 1466 1462 1459
1536 1543 1544 1541 1542 1522 1494 1497 1497 1485 1475 1474 1472 1471 1470 1467 1465 1462 1460 1458 1456 1455 1454 1454 1454 1455 1457 1459 1462 1464 1465 1468 1470 1471 1471 1472 1471 1470 1469 1467 1465 1462 1459 1455
1516 1514 1514 1514 1503 1486 1483 1481 1476 1475 1472 1469 1467 1465 1464 1461 1458 1455 1453 1451 1449 1448 1447 1447 1448 1449 1450 1452 1454 1456 1460 1462 1464 1465 1466 1466 1466 1465 1464 1462 1460 1458 1455 1452
1500 1498 1499 1496 1485 1480 1478 1475 1473 1471 1467 1463 1462 1459 1457 1454 1450 1448 1445 1443 1441 1440 1439 1439 1440 1440 1442 1444 1447 1450 1454 1456 1457 1459 1460 1461 1461 1461 1460 1458 1456 1454 1451 1448
1490 1493 1493 1486 1477 1476 1470 1468 1466 1463 1460 1457 1454 1452 1449 1446 1442 1439 1436 1434 1432 1431 1430 1430 1430 1431 1433 1436 1439 1443 1446 1449 1451 1453 1454 1455 1456 1455 1455 1454 1453 1450 1448 1446
1481 1485 1485 1473 1468 1470 1463 1461 1460 1457 1452 1449 1446 1442 1440 1437 1433 1430 1427 1424 1423 1421 1421 1421 1421 1422 1425 1428 1431 1435 1438 1441 1444 1446 1448 1449 1450 1450 1450 1449 1449 1447 1445 1442